Location: Brantley
(31.5822°N, 86.2569°W)
Time: 01:34:34
(UTC+00:00)

Vanguard 3 - Pass Details

Date: 17 February 2026
Orbit: 507 x 3205 km, 33.4° (Epoch: 10 March)

Event Time Altitude Azimuth Distance (km) Brightness Sun altitude
Rises 21:02:43 0° 238° (WSW) 6,231 12.9 28.3°
Reaches altitude 10° 21:07:32 10° 235° (SW) 4,814 12.9 27.4°
Maximum altitude 21:19:37 60° 160° (SSE) 1,622 9.2 25.3°
Drops below altitude 10° 21:26:22 10° 81° (E) 2,777 9.4 24.1°
Sets 21:28:27 0° 78° (ENE) 3,487 9.9 23.7°
